sat.trackr.live / text

‹ back to catalog

TRANSPORTER-15 OBJECT DM

NORAD 66773 · 2025-276DM

PAYLOAD ACTIVE UNKNOWN

§ Identity

Operator
Country
TBD
Launch date
2025-11-28
Launch site
AFWTR
Launch vehicle
Mass (kg)
RCS (m²)

External: N2YO · Heavens-Above · Gunter

§ Orbital elements

Epoch: 2026-05-25T04:21:29.349216Z

Period
94.72 min
Inclination
97.4223°
Eccentricity
0.0000581
Mean motion
15.20291250 rev/d
Perigee alt
504.6 km
Apogee alt
505.4 km
Semi-major
6,883.1 km
B*
1.9368e-4
RAAN
219.4100°
Arg perigee
23.9218°
Mean anomaly
336.2044°
Rev number
2,694

§ Raw data

TRANSPORTER-15 OBJECT DM1 66773U 25276DM  26145.18158969  .00004138  00000+0  19368-3 0  99912 66773  97.4223 219.4100 0000581  23.9218 336.2044 15.20291250 26944

JSON: /api/v1/satellites/66773 · /tle

For live sub-satellite position, see the globe view (requires WebGL).

§ Visibility from observer

Set your observer location to see the next 7 days of passes ≥ 10°. The values pass through the URL so the page stays shareable.

No JS? Fill the form by hand. The geolocation button needs JavaScript.